{"data":{"norad_id":68934,"epoch":"2026-09-20T05:14:55.072608Z","epoch_age_seconds":39725,"freshness":"FRESH","line1":"1 68934U 26098R   26263.21869297  .00000873  00000+0  14355-3 0  9996","line2":"2 68934  51.8978 357.9277 0000770 102.8370 257.2678 14.79935667 21552","mean_motion":14.79935667,"eccentricity":7.7e-5,"inclination_deg":51.8978,"raan_deg":357.9277,"arg_perigee_deg":102.837,"mean_anomaly_deg":257.2678,"bstar":0.00014355,"rev_number":2155,"period_min":97.301526823733,"perigee_km":628.98761998534,"apogee_km":630.0668002737,"semimajor_km":7007.6642101295,"source":"CELESTRAK","updated_at":"2026-09-20T09:00:24.580349Z"}}